Wind_Speed
24 24 23 22 22 24 26 28 31 33 34 33 32 32 31 31 32 34 34 34 35 34 34 34 33 32 32 31 31 31 31 32 32 33 32 32 31 31 30 30 30 30
23 22 21 20 20 22 25 27 30 32 32 32 32 32 32 33 35 36 36 36 37 37 37 36 36 35 34 33 33 33 33 33 34 34 34 33 32 31 31 31 31 31
22 22 22 19 19 22 26 29 31 33 33 34 34 34 34 36 36 37 37 37 38 38 39 38 37 36 36 36 36 35 35 34 35 35 35 35 34 33 32 32 32 31
21 22 22 20 19 22 27 32 34 36 37 37 37 37 37 38 38 38 38 39 40 40 40 39 39 38 38 38 38 38 37 36 36 36 36 36 35 35 34 33 33 33
21 22 22 22 22 23 27 30 33 36 39 41 41 40 41 41 41 40 40 40 41 41 41 41 40 40 40 40 40 39 38 37 36 36 37 36 36 35 34 34 34 34
24 25 25 25 27 28 30 31 32 34 37 41 43 44 45 45 44 44 43 43 43 43 44 43 43 42 42 42 41 41 40 39 38 37 37 37 35 35 35 35 35 35
30 30 30 30 31 32 33 35 37 38 39 41 44 46 48 48 47 47 46 45 45 45 46 46 45 45 44 43 43 42 42 40 39 39 39 38 36 36 35 35 35 35
36 35 34 35 35 35 35 36 38 40 41 44 47 48 50 51 51 50 49 49 48 48 48 48 48 47 46 45 45 44 44 43 41 41 40 39 38 37 36 35 36 36
40 38 36 36 38 38 38 37 39 40 42 44 46 49 52 53 54 53 51 52 52 51 51 50 50 49 48 48 47 47 46 45 44 43 42 41 40 38 37 37 37 38
41 39 38 39 39 39 39 39 40 42 45 44 43 46 50 53 56 56 55 54 54 54 53 52 51 51 50 50 50 49 48 47 46 45 44 43 41 40 40 39 40 40
44 45 45 44 42 40 41 42 42 44 47 48 45 45 47 48 52 57 58 58 56 55 54 53 53 52 52 52 52 52 51 50 49 48 46 45 44 43 42 42 42 41
50 51 51 50 46 44 43 44 46 46 48 51 49 47 47 49 51 55 59 61 59 56 55 54 54 54 54 54 55 55 55 53 52 50 49 48 47 46 45 44 44 43
54 55 55 54 52 49 45 44 47 48 49 53 53 51 51 52 52 53 56 60 61 58 56 54 53 54 54 56 57 59 59 58 56 54 52 51 50 49 48 47 46 45
56 56 57 56 54 51 47 44 46 49 51 53 55 55 55 54 54 53 55 58 60 60 57 55 53 53 54 55 58 60 62 61 60 57 55 54 52 51 50 49 49 47
57 57 56 56 55 53 49 45 44 47 50 54 56 57 57 56 56 55 55 56 58 59 58 56 53 52 53 54 56 59 62 64 63 61 59 57 55 54 53 52 51 49
60 58 57 56 56 56 55 51 48 47 48 52 56 58 59 58 57 56 55 55 57 58 57 55 52 52 52 53 54 56 60 63 65 65 63 61 58 57 56 55 53 52
62 62 60 58 58 58 60 59 57 53 51 51 54 57 58 58 57 56 55 55 56 58 56 52 51 51 50 51 53 55 58 61 64 66 66 64 63 61 59 58 56 54
63 64 64 63 61 60 61 62 62 61 59 56 55 56 57 57 56 55 54 54 57 59 56 53 52 51 51 53 54 55 57 60 62 64 66 67 66 65 63 62 60 58
61 63 65 65 65 64 63 62 61 61 61 60 59 58 57 57 55 53 52 53 57 59 57 55 54 52 53 55 56 56 58 59 61 62 64 65 67 67 67 66 64 61
61 63 64 65 66 65 65 63 61 59 59 59 59 58 58 57 56 55 53 52 55 59 59 58 57 56 56 58 58 57 58 59 60 61 62 63 65 66 67 68 67 65
64 63 63 62 62 62 62 62 60 59 58 59 59 58 57 57 57 58 57 54 54 57 59 59 59 59 59 59 58 58 58 58 60 61 62 63 64 65 67 68 68 67
63 63 62 60 59 58 57 56 56 55 56 58 59 58 58 59 59 60 61 59 57 58 59 61 60 60 60 59 58 57 57 58 59 60 62 63 64 65 66 67 68 67
53 56 57 57 57 56 54 52 52 52 53 55 57 58 58 59 60 61 62 62 61 60 61 61 61 61 60 59 57 56 57 58 59 60 62 62 63 64 65 66 66 66
44 46 49 51 53 53 52 51 50 50 51 51 53 55 56 56 57 58 60 61 61 61 61 61 61 61 60 59 59 58 58 59 60 61 62 61 61 61 63 64 65 65
43 43 44 45 47 47 47 48 47 48 48 48 49 51 52 52 52 54 55 57 59 60 60 60 60 60 60 61 60 59 60 61 62 62 61 60 60 61 62 63 64 63
46 46 45 44 44 44 43 43 43 44 45 45 45 46 48 50 50 51 52 54 56 57 58 58 59 60 61 61 61 60 61 62 62 61 60 60 60 60 61 62 61 60
Wind_Direction
259 257 258 260 262 261 259 254 248 242 236 234 238 242 245 247 249 251 252 252 250 249 248 248 249 251 253 254 256 258 260 262 262 263 263 264 265 267 268 270 271 272
265 262 260 264 268 269 266 259 250 244 241 243 247 249 250 252 254 255 255 254 253 252 251 251 251 252 253 254 255 256 256 258 259 260 261 261 262 263 265 267 268 270
269 269 269 270 271 270 266 261 256 253 254 255 256 257 258 258 258 257 257 256 255 255 254 254 255 255 255 255 254 254 254 255 256 257 258 259 259 260 262 264 267 269
264 265 267 268 268 265 262 261 261 261 263 263 263 263 264 263 261 260 259 259 258 257 257 257 257 258 257 256 255 254 254 254 255 256 256 257 258 260 261 264 266 267
259 259 260 261 261 261 261 262 263 264 265 265 265 266 265 264 263 262 262 261 260 259 259 259 259 259 258 257 256 255 254 254 255 256 256 257 258 259 260 262 264 265
257 259 259 258 256 254 256 259 263 265 265 264 264 265 266 265 263 262 262 261 260 259 259 259 259 259 258 257 257 256 255 255 256 256 256 257 257 258 259 260 262 264
259 261 261 262 261 257 254 253 256 259 261 262 262 261 262 263 263 262 261 259 259 258 258 259 258 258 258 257 257 257 256 257 258 258 258 258 258 258 258 260 261 261
257 260 264 267 268 267 263 259 257 256 256 258 258 259 260 261 261 261 260 258 257 257 257 257 257 258 258 258 259 258 258 259 259 259 260 260 260 260 260 260 260 259
258 262 269 273 273 273 271 268 265 260 256 254 255 255 256 257 258 258 258 257 256 256 255 256 256 257 258 260 261 260 260 260 260 260 261 261 261 261 261 260 259 258
263 268 276 280 280 278 275 273 268 261 256 253 254 253 253 253 254 254 255 255 256 255 255 256 257 258 259 261 262 262 261 261 261 261 261 261 261 261 261 261 260 260
270 275 282 284 283 279 276 273 270 264 255 251 252 254 254 255 254 253 252 253 254 255 256 257 257 258 260 261 262 263 262 261 261 260 260 260 259 259 261 261 261 261
273 278 282 283 282 280 277 273 272 268 258 250 250 254 255 256 256 254 252 251 251 253 254 256 257 257 259 261 261 261 260 260 259 259 258 258 258 258 260 261 262 262
273 276 278 279 279 279 278 273 270 267 259 252 250 253 255 255 255 256 254 251 250 250 251 253 254 256 257 259 259 259 259 258 258 258 257 257 257 258 259 261 262 262
273 274 275 276 276 277 275 272 267 264 260 255 252 253 255 257 257 256 256 252 249 248 249 249 250 253 255 257 258 258 258 258 257 257 256 256 256 256 258 259 260 261
274 275 275 275 275 275 274 272 269 266 262 258 256 256 257 258 259 258 257 253 248 246 246 245 247 251 254 257 259 259 258 257 256 256 256 255 255 255 256 257 258 260
275 276 276 276 275 275 275 274 273 271 268 263 260 259 258 259 259 259 258 254 248 245 244 244 248 254 257 260 262 262 259 256 255 255 255 255 254 254 255 256 257 259
277 277 277 277 276 275 275 276 275 274 272 269 266 263 260 259 258 258 258 254 248 244 244 247 253 257 259 262 263 263 261 258 255 254 253 254 254 254 255 256 256 258
278 279 279 280 279 277 276 276 276 275 273 272 270 267 262 259 258 257 256 252 247 244 244 250 256 258 260 263 264 262 261 259 257 255 253 253 254 254 255 255 256 257
278 279 279 280 280 280 279 278 277 276 273 271 269 268 265 261 258 256 254 251 247 244 246 252 257 259 261 263 263 261 260 258 257 256 255 254 254 254 255 255 255 256
279 279 279 280 280 281 281 281 279 276 272 269 267 266 265 262 259 256 254 251 246 244 247 252 255 258 261 262 261 260 258 257 256 255 255 254 254 254 254 254 254 254
279 280 280 281 281 282 282 281 279 275 271 267 265 263 262 261 258 255 252 250 246 244 247 251 254 257 259 260 259 258 257 255 254 254 254 253 253 253 254 254 254 252
274 277 278 279 280 280 280 279 277 273 268 264 261 259 257 257 256 253 251 249 247 246 248 251 255 257 259 258 257 256 255 253 253 253 253 253 253 254 254 255 253 250
266 268 270 272 273 274 275 275 274 272 268 263 259 256 255 255 254 252 250 248 248 248 250 253 256 257 257 256 255 254 253 253 253 253 253 253 254 254 255 255 252 249
266 264 263 263 264 265 267 269 269 269 266 263 260 257 255 255 255 254 252 251 251 251 253 254 255 256 255 254 254 252 251 251 252 252 252 252 252 252 253 252 250 246
274 272 268 264 261 261 262 263 265 265 264 262 259 257 256 255 255 255 255 254 253 253 253 254 255 256 255 254 253 250 250 251 251 251 252 252 251 252 251 250 247 244
281 279 277 273 269 266 265 265 265 265 264 263 261 260 258 257 256 255 255 254 255 255 255 256 257 256 255 253 251 249 249 250 250 251 251 251 251 250 249 246 244 241
Height
3031 3031 3031 3032 3032 3033 3034 3034 3036 3037 3038 3041 3043 3045 3046 3047 3047 3047 3047 3048 3048 3048 3049 3049 3049 3049 3049 3049 3049 3050 3050 3051 3051 3051 3051 3052 3052 3053 3053 3054 3054 3054
3029 3029 3028 3029 3030 3031 3032 3033 3034 3035 3037 3039 3040 3041 3042 3042 3042 3042 3043 3043 3043 3044 3044 3044 3044 3045 3045 3045 3045 3045 3046 3046 3047 3047 3047 3047 3048 3048 3049 3050 3050 3050
3027 3027 3027 3027 3028 3029 3030 3031 3032 3033 3035 3036 3036 3037 3038 3038 3038 3038 3038 3038 3038 3039 3039 3039 3040 3040 3041 3041 3041 3041 3042 3042 3042 3043 3043 3043 3043 3044 3044 3045 3045 3046
3024 3024 3024 3025 3025 3026 3027 3027 3029 3030 3031 3032 3032 3033 3033 3033 3033 3033 3033 3033 3033 3034 3034 3035 3035 3036 3036 3036 3037 3037 3037 3038 3038 3038 3038 3038 3039 3039 3040 3040 3041 3041
3020 3020 3021 3021 3021 3022 3023 3023 3024 3026 3027 3027 3028 3029 3028 3028 3028 3028 3029 3029 3029 3029 3029 3030 3030 3031 3031 3032 3032 3032 3033 3033 3034 3034 3033 3034 3035 3035 3035 3036 3036 3037
3015 3015 3015 3016 3016 3016 3017 3018 3020 3021 3022 3022 3023 3024 3023 3023 3023 3024 3024 3024 3024 3024 3024 3024 3025 3025 3026 3026 3027 3027 3028 3028 3029 3029 3029 3029 3030 3030 3030 3031 3032 3033
3007 3008 3009 3009 3010 3010 3011 3011 3013 3014 3016 3017 3017 3017 3017 3018 3018 3019 3019 3019 3019 3019 3018 3019 3019 3019 3020 3021 3021 3022 3022 3023 3024 3024 3024 3024 3025 3025 3026 3026 3027 3028
3000 3001 3002 3002 3003 3004 3005 3006 3006 3007 3009 3010 3011 3011 3011 3012 3012 3013 3014 3014 3014 3013 3013 3013 3013 3013 3014 3015 3015 3016 3017 3017 3018 3018 3019 3019 3019 3020 3020 3021 3021 3022
2993 2995 2996 2997 2998 2999 2999 3000 3001 3001 3001 3002 3003 3003 3003 3004 3005 3006 3007 3007 3007 3007 3007 3007 3007 3007 3008 3009 3009 3010 3011 3011 3012 3012 3013 3013 3014 3014 3015 3015 3015 3016
2988 2989 2991 2991 2993 2993 2993 2994 2994 2994 2994 2994 2994 2994 2995 2996 2997 2998 3000 3000 3000 3000 3001 3002 3002 3002 3002 3002 3003 3003 3004 3005 3005 3006 3006 3007 3008 3008 3008 3009 3009 3010
2983 2983 2984 2985 2986 2987 2987 2987 2986 2986 2986 2986 2986 2986 2987 2988 2989 2990 2991 2991 2992 2994 2995 2996 2996 2996 2996 2996 2996 2997 2997 2998 2998 2999 3000 3000 3001 3002 3002 3002 3003 3004
2977 2977 2977 2978 2978 2979 2979 2979 2978 2978 2978 2978 2978 2978 2979 2979 2980 2980 2981 2983 2985 2987 2988 2989 2990 2990 2990 2990 2990 2990 2990 2991 2992 2993 2993 2994 2995 2995 2996 2996 2997 2998
2971 2970 2970 2970 2970 2970 2971 2971 2971 2971 2971 2971 2970 2970 2970 2970 2971 2972 2973 2974 2977 2978 2980 2981 2982 2983 2983 2983 2983 2983 2983 2984 2985 2986 2987 2988 2988 2989 2989 2990 2991 2991
2963 2963 2963 2963 2963 2963 2963 2963 2964 2964 2964 2963 2962 2962 2962 2962 2962 2963 2964 2965 2967 2969 2971 2973 2974 2975 2976 2976 2976 2976 2976 2977 2978 2979 2980 2981 2981 2982 2983 2984 2984 2985
2955 2955 2956 2956 2956 2956 2956 2956 2956 2956 2956 2955 2955 2954 2954 2954 2954 2954 2955 2957 2958 2960 2962 2964 2965 2967 2968 2968 2969 2969 2970 2970 2971 2972 2973 2974 2974 2975 2976 2977 2977 2979
2946 2946 2947 2948 2948 2948 2948 2948 2948 2948 2947 2947 2947 2946 2946 2945 2945 2946 2948 2950 2951 2953 2954 2956 2957 2959 2960 2961 2961 2962 2963 2963 2963 2964 2965 2966 2967 2967 2968 2969 2971 2972
2937 2937 2937 2938 2938 2939 2939 2939 2939 2939 2939 2938 2938 2938 2938 2938 2938 2938 2940 2942 2944 2945 2946 2948 2949 2951 2952 2953 2954 2954 2955 2955 2955 2956 2957 2958 2959 2960 2961 2962 2963 2965
2929 2928 2928 2927 2927 2928 2929 2929 2929 2929 2929 2929 2929 2930 2930 2930 2931 2931 2933 2934 2936 2937 2938 2939 2941 2942 2944 2944 2945 2946 2946 2946 2947 2947 2948 2949 2950 2952 2953 2954 2955 2957
2923 2921 2920 2919 2918 2919 2919 2920 2920 2920 2921 2921 2921 2921 2922 2922 2924 2924 2925 2927 2928 2929 2930 2931 2932 2933 2935 2936 2936 2937 2938 2938 2938 2939 2940 2941 2942 2943 2944 2945 2947 2949
2916 2915 2914 2912 2911 2910 2910 2910 2911 2911 2912 2912 2912 2913 2913 2914 2915 2916 2918 2919 2920 2921 2921 2922 2923 2925 2926 2927 2928 2929 2929 2930 2930 2930 2931 2932 2933 2934 2935 2936 2938 2940
2908 2907 2907 2905 2904 2903 2902 2902 2902 2902 2903 2903 2903 2904 2904 2905 2906 2907 2909 2910 2911 2912 2912 2913 2914 2916 2917 2918 2919 2919 2920 2921 2921 2921 2922 2922 2923 2924 2925 2926 2928 2930
2902 2901 2900 2899 2897 2895 2895 2894 2894 2894 2894 2894 2894 2895 2895 2896 2897 2898 2899 2900 2901 2902 2903 2904 2906 2907 2908 2909 2909 2910 2911 2911 2911 2912 2912 2913 2914 2915 2916 2917 2919 2921
2896 2895 2894 2893 2891 2889 2888 2887 2886 2886 2886 2885 2885 2886 2887 2887 2888 2888 2889 2890 2891 2892 2894 2895 2897 2898 2899 2899 2900 2900 2901 2902 2902 2902 2903 2904 2905 2906 2907 2908 2910 2912
2889 2888 2887 2886 2885 2883 2881 2880 2880 2879 2879 2878 2878 2878 2878 2879 2879 2880 2880 2881 2882 2884 2885 2886 2888 2889 2889 2889 2890 2890 2891 2891 2891 2892 2893 2894 2895 2896 2897 2898 2899 2902
2882 2880 2879 2878 2877 2877 2875 2875 2874 2874 2872 2871 2871 2871 2871 2871 2871 2871 2872 2873 2874 2875 2877 2877 2879 2880 2880 2880 2880 2880 2880 2881 2881 2882 2883 2885 2886 2887 2888 2889 2891 2894
2875 2874 2873 2872 2871 2870 2869 2869 2868 2867 2866 2865 2864 2863 2863 2863 2863 2863 2864 2866 2867 2868 2869 2869 2870 2871 2871 2870 2870 2870 2870 2871 2871 2872 2874 2876 2877 2878 2879 2881 2883 2886